TimeCST,TemperatureF,Dew PointF,Humidity,Sea Level PressureIn,VisibilityMPH,Wind Direction,Wind SpeedMPH,Gust SpeedMPH,PrecipitationIn,Events,Conditions,WindDirDegrees,DateUTC
12:52 AM,28.9,25.0,85,30.09,10.0,Calm,Calm,-,N/A,,Clear,0,2013-02-06 06:52:00
1:52 AM,27.0,21.9,81,30.07,10.0,Calm,Calm,-,N/A,,Clear,0,2013-02-06 07:52:00
2:52 AM,34.0,26.1,73,30.06,10.0,NNE,4.6,-,N/A,,Clear,20,2013-02-06 08:52:00
3:52 AM,30.9,25.0,79,30.05,10.0,NE,4.6,-,N/A,,Clear,40,2013-02-06 09:52:00
4:52 AM,37.9,27.0,65,30.04,10.0,Variable,3.5,-,N/A,,Clear,0,2013-02-06 10:52:00
5:52 AM,39.0,26.1,60,30.05,10.0,Calm,Calm,-,N/A,,Clear,0,2013-02-06 11:52:00
6:52 AM,37.9,26.1,62,30.05,10.0,WSW,3.5,-,N/A,,Clear,240,2013-02-06 12:52:00
7:52 AM,39.9,28.0,63,30.05,10.0,South,9.2,-,N/A,,Clear,170,2013-02-06 13:52:00
8:52 AM,44.1,30.0,58,30.04,10.0,South,6.9,16.1,N/A,,Clear,170,2013-02-06 14:52:00
9:52 AM,51.1,30.9,46,30.01,10.0,South,17.3,23.0,N/A,,Clear,170,2013-02-06 15:52:00
10:52 AM,55.0,32.0,42,30.01,10.0,South,13.8,-,N/A,,Clear,180,2013-02-06 16:52:00
11:52 AM,60.1,32.0,35,29.97,10.0,South,11.5,-,N/A,,Partly Cloudy,170,2013-02-06 17:52:00
12:52 PM,63.0,34.0,34,29.93,10.0,South,10.4,19.6,N/A,,Scattered Clouds,170,2013-02-06 18:52:00
1:52 PM,64.9,39.0,39,29.88,9.0,South,13.8,20.7,N/A,,Scattered Clouds,190,2013-02-06 19:52:00
2:52 PM,64.9,46.9,52,29.84,10.0,SSW,16.1,27.6,N/A,,Mostly Cloudy,210,2013-02-06 20:52:00
3:52 PM,64.9,48.0,54,29.83,10.0,SSW,15.0,-,N/A,,Mostly Cloudy,200,2013-02-06 21:52:00
4:52 PM,64.0,48.9,58,29.82,10.0,SSW,11.5,20.7,N/A,,Overcast,200,2013-02-06 22:52:00
5:52 PM,61.0,50.0,67,29.82,10.0,South,5.8,-,N/A,,Mostly Cloudy,180,2013-02-06 23:52:00
6:52 PM,57.9,48.9,72,29.83,10.0,Calm,Calm,-,N/A,,Overcast,0,2013-02-07 00:52:00
7:20 PM,57.2,48.2,72,29.82,10.0,Calm,Calm,-,N/A,,Overcast,0,2013-02-07 01:20:00
7:52 PM,55.9,48.0,75,29.84,10.0,Calm,Calm,-,N/A,,Overcast,0,2013-02-07 01:52:00
8:02 PM,57.2,48.2,72,29.83,10.0,Calm,Calm,-,N/A,,Overcast,0,2013-02-07 02:02:00
8:52 PM,57.0,48.9,74,29.86,10.0,Calm,Calm,-,N/A,,Overcast,0,2013-02-07 02:52:00
9:29 PM,55.4,48.2,77,29.86,8.0,Calm,Calm,-,N/A,,Overcast,0,2013-02-07 03:29:00
9:52 PM,54.0,48.0,80,29.87,8.0,Calm,Calm,-,N/A,,Overcast,0,2013-02-07 03:52:00
10:05 PM,53.6,50.0,88,29.86,7.0,Calm,Calm,-,N/A,,Mostly Cloudy,0,2013-02-07 04:05:00
10:19 PM,53.6,48.2,82,29.86,7.0,Calm,Calm,-,0.00,Rain,Light Rain,0,2013-02-07 04:19:00
10:42 PM,51.8,48.2,88,29.86,2.5,Calm,Calm,-,0.03,Rain,Rain,0,2013-02-07 04:42:00
10:50 PM,51.8,50.0,94,29.86,6.0,ESE,3.5,-,0.03,Rain,Light Rain,120,2013-02-07 04:50:00
10:52 PM,52.0,50.0,93,29.86,6.0,Calm,Calm,-,0.03,,Overcast,0,2013-02-07 04:52:00
11:19 PM,53.6,50.0,88,29.86,5.0,Calm,Calm,-,N/A,,Overcast,0,2013-02-07 05:19:00